Flag for Canada Weather past 2 weeks in Whistler, British Columbia, Canada

Now
51 °F

Cool.


Feels Like: 51 °F
Forecast: 31 / 51 °F
Wind: 2 mph from Southeast

Location: Squamish Airport

Current Time: Apr 25, 2015 at 11:50:31 AM

Latest Report: Apr 25, 2015 at 11:00 AM


Visibility: N/A

Pressure: 29.95 "Hg

Humidity: 60%

Dew point: 38 °F

Location of WhistlerLocation

Historic Weather in Whistler — Graph

°F

Whistler temperature yesterday

Maximum temperature yesterday: 50 °F (at 3:00 PM)
Minimum temperature yesterday: 39 °F (at 4:00 AM)
Average temperature yesterday: 43 °F

Past Weeks' High & Low Weather Summary

 TemperatureHumidityPressure
High70 °F (Apr 20, 4:00 PM)100% (Apr 10, 11:00 PM)30.51 "Hg (Apr 10, 11:00 PM)
Low31 °F (Apr 12, 5:00 AM)31% (Apr 19, 5:00 PM)29.65 "Hg (Apr 10, 9:00 PM)
Average47 °F77%30.03 "Hg
* Reported Apr 10 11:00 AM — Apr 25 11:00 AM, Whistler, Weather by CustomWeather, © 2015

Note: Actual official high and low records may vary slightly from our data, if they occured in-between our weather recording intervals... More about our weather records

Advertising

Whistler weather history for previous 24 hours

 ConditionsComfort  
Time TempWeatherWind HumidityBarometerVisibility
11:00 AM
Sat, Apr 25
51 °FCool.2 mph60%29.95 "HgN/A
10:00 AM48 °FCool.2 mph70%29.95 "HgN/A
9:00 AM44 °FQuite cool.2 mph89%29.95 "HgN/A
8:00 AM42 °FQuite cool.2 mph97%29.94 "HgN/A
7:00 AM41 °FQuite cool.No wind98%29.92 "HgN/A
6:00 AM41 °FQuite cool.No wind92%29.91 "HgN/A
5:00 AM40 °FQuite cool.1 mph98%29.90 "HgN/A
4:00 AM40 °FQuite cool.No wind98%29.89 "HgN/A
3:00 AM40 °FChilly.No wind98%29.88 "HgN/A
2:00 AM40 °FChilly.No wind98%29.88 "HgN/A
1:00 AM41 °FQuite cool.No wind91%29.87 "HgN/A
12:00 AM41 °FQuite cool.No wind91%29.86 "HgN/A
11:00 PM
Fri, Apr 24
42 °FQuite cool.No wind96%29.85 "HgN/A
10:00 PM42 °FQuite cool.No wind93%29.85 "HgN/A
9:00 PM43 °FQuite cool.3 mph93%29.84 "HgN/A
8:00 PM46 °FCool.3 mph82%29.81 "HgN/A
7:00 PM47 °FCool.5 mph74%29.80 "HgN/A
6:00 PM47 °FCool.3 mph72%29.79 "HgN/A
4:00 PM47 °FCool.9 mph74%29.78 "HgN/A
3:00 PM50 °FCool.7 mph67%29.77 "HgN/A
2:00 PM48 °FCool.8 mph76%29.77 "HgN/A
1:00 PM46 °FCool.8 mph79%29.77 "HgN/A
12:00 PM47 °FCool.2 mph76%29.77 "HgN/A
11:00 AM44 °FQuite cool.3 mph83%29.76 "HgN/A
Weather by CustomWeather, © 2015

See weather overviewHow to use our weather pages